Home > Weather > Solothurn > Past weeks

Flag for Switzerland Weather for the Past 2 Weeks in Solothurn, Solothurn, Switzerland

Now
32 °F

Chilly.


Feels Like: 32 °F
Forecast: 32 / 58 °F
Wind: 1 mph from East

Location: Grenchen

Current Time: Apr 29, 2016 at 8:34:46 AM

Latest Report: Apr 29, 2016 at 7:00 AM


Visibility: N/A

Pressure: 30.16 "Hg

Humidity: 100%

Dew Point: 31 °F

Location of SolothurnLocation

Historic Weather in Solothurn — Graph

°F

Solothurn Temperature Yesterday

Maximum temperature yesterday: 52 °F (at 3:00 PM)
Minimum temperature yesterday: 28 °F (at 7:00 AM)
Average temperature yesterday: 46 °F

High & Low Weather Summary for the Past Weeks

 TemperatureHumidityPressure
High70 °F (Apr 21, 5:00 PM)100% (Apr 29, 6:00 AM)30.36 "Hg (Apr 29, 6:00 AM)
Low28 °F (Apr 28, 7:00 AM)38% (Apr 28, 3:00 PM)29.66 "Hg (Apr 16, 8:00 PM)
Average49 °F75%29.98 "Hg
* Reported Apr 14 12:00 Noon — Apr 29 6:00 AM, Solothurn, Weather by CustomWeather, © 2016

Note: Actual official high and low records may vary slightly from our data, if they occured in-between our weather recording intervals... More about our weather records

Advertising

Solothurn Weather History for the Previous 24 Hours

Scroll right to see more
 ConditionsComfort  
Time TempWeatherWind HumidityBarometerVisibility
6:00 AM
Fri, Apr 29
31 °FChilly.No wind100%30.15 "HgN/A
5:00 AM32 °FChilly.1 mph99%30.13 "HgN/A
4:00 AM33 °FChilly.1 mph97%30.12 "HgN/A
3:00 AM36 °FChilly.1 mph92%30.11 "HgN/A
2:00 AM35 °FChilly.2 mph94%30.11 "HgN/A
10:00 PM
Thu, Apr 28
46 °FCool.2 mph69%30.06 "HgN/A
9:00 PM47 °FCool.2 mph55%30.03 "HgN/A
8:40 PM48 °FCool.1 mph56%30.03 "HgN/A
8:00 PM49 °FCool.3 mph52%30.01 "HgN/A
7:00 PM51 °FCool.7 mph44%30.00 "HgN/A
6:00 PM52 °FCool.9 mph44%29.99 "HgN/A
5:00 PM52 °FCool.6 mph42%29.98 "HgN/A
4:00 PM52 °FCool.7 mph39%29.98 "HgN/A
3:00 PM52 °FCool.7 mph38%29.98 "HgN/A
1:00 PM52 °FCool.6 mph47%29.99 "HgN/A
11:00 AM45 °FCool.5 mph62%30.03 "HgN/A
Weather by CustomWeather, © 2016

See weather overviewHow to use our weather pages